Home   Weather   Gander   Past weeks

Flag for Canada Past Weather in Gander, Newfoundland and Labrador, Canada — Yesterday and Last 2 Weeks

Now
41 °F

Sprinkles. Overcast.


Feels Like: 38 °F
Forecast: 37 / 47 °F
Wind: 5 mph from Northwest

Location: Gander Int. Airport

Current Time: Sep 26, 2016 at 9:44:44 PM

Latest Report: Sep 26, 2016 at 8:30 PM


Visibility: 15 mi

Pressure: 29.74 "Hg

Humidity: 93%

Dew Point: 39 °F

Location of GanderLocation

Past Weather in Gander — Graph

°F

Gander Temperature Yesterday

Maximum temperature yesterday: 50 °F (at 12:30 PM)
Minimum temperature yesterday: 39 °F (at 5:30 AM)
Average temperature yesterday: 44 °F

High & Low Weather Summary for the Past Weeks

 TemperatureHumidityPressure
High73 °F (Sep 13, 2:30 PM)100% (Sep 15, 8:30 AM)30.41 "Hg (Sep 15, 8:30 AM)
Low37 °F (Sep 16, 2:30 AM)45% (Sep 16, 5:30 PM)29.51 "Hg (Sep 12, 5:30 AM)
Average52 °F82%29.89 "Hg
* Reported Sep 11 8:30 PM — Sep 26 8:30 PM, Gander, Weather by CustomWeather, © 2016

Note: Actual official high and low records may vary slightly from our data, if they occured in-between our weather recording intervals... More about our weather records

Advertising

Gander Weather History for the Previous 24 Hours

Scroll right to see more
 ConditionsComfort  
Time TempWeatherWind HumidityBarometerVisibility
8:30 PM
Mon, Sep 26
41 °FSprinkles. Overcast.5 mph93%29.74 "Hg15 mi
7:30 PM41 °FSprinkles. Overcast.6 mph100%29.72 "Hg15 mi
6:30 PM41 °FSprinkles. Partly cloudy.9 mph100%29.72 "Hg20 mi
6:16 PM41 °FSprinkles. Fog.10 mph100%29.72 "Hg6 mi
5:30 PM43 °FPartly sunny.10 mph93%29.71 "Hg15 mi
4:30 PM43 °FPartly sunny.13 mph93%29.69 "Hg15 mi
2:30 PM45 °FLight rain. Fog.18 mph93%29.68 "Hg6 mi
1:30 PM45 °FLight rain. Fog.22 mph93%29.67 "Hg3 mi
12:34 PM45 °FLight rain. Fog.22 mph87%29.67 "Hg3 mi
11:30 AM43 °FLight rain. Fog.17 mph100%29.67 "Hg2 mi
10:30 AM43 °FLight rain. Fog.17 mph93%29.65 "Hg2 mi
9:30 AM41 °FLight rain. Fog.20 mph100%29.64 "Hg2 mi
8:30 AM41 °FLight rain. Fog.16 mph93%29.62 "Hg2 mi
7:30 AM41 °FLight rain. Fog.15 mph93%29.61 "Hg1 mi
7:16 AM41 °FLight rain. Fog.16 mph93%29.60 "Hg1 mi
6:30 AM41 °FLight rain. Fog.14 mph93%29.59 "Hg2 mi
5:30 AM41 °FLight rain. Fog.13 mph100%29.57 "Hg3 mi
5:20 AM41 °FLight rain. Fog.15 mph100%29.57 "Hg2 mi
4:30 AM41 °FLight rain. Fog.13 mph100%29.57 "Hg2 mi
4:22 AM41 °FLight rain. Fog.14 mph100%29.57 "Hg2 mi
3:30 AM41 °FDrizzle. Fog.13 mph100%29.56 "Hg4 mi
2:30 AM41 °FLight rain. Mostly cloudy.14 mph93%29.56 "Hg8 mi
1:30 AM41 °FLight rain. Fog.9 mph93%29.56 "Hg2 mi
1:19 AM41 °FSprinkles. Overcast.14 mph93%29.56 "Hg20 mi
12:30 AM43 °FMostly cloudy.13 mph81%29.56 "Hg20 mi
11:30 PM
Sun, Sep 25
43 °FPartly cloudy.14 mph81%29.56 "Hg20 mi
10:30 PM43 °FPartly cloudy.12 mph76%29.57 "Hg20 mi
9:30 PM43 °FPassing clouds.10 mph71%29.57 "Hg20 mi
Weather by CustomWeather, © 2016

See weather overviewHow to use our weather pages